Content
SEND FEEDBACK

Daily
Averages
Monthly
Summary
United States of America

STATEN ISLAND, NEW YORK


Home > North America > United States > New York
Elevation: 46 meters     Latitude: 40 35N     Longitude: 074 09W

WEATHER
 
SELECT A DAY
Number of Records: 192,352;   Date Range: 1/1/95 - 10/20/14
 
SHARE

PRINT THIS DATA

[ ← Previous Day ]
WEATHER ALMANAC - 5 SEPTEMBER, 2013
[ Next Day → ]
[ °F ]   °C
Weather ElementAverageHighLow
Temperature21.4 °C26.1 °C (1:51 pm)17.2 °C (4:51 am)
Dewpoint10.6 °C15 °C (9:51 am)3.9 °C (5:51 pm)
Humidity53.3 %84 % (4:51 am)27 % (5:51 pm)
Barometer1016.3 hPa1021.3 hPa (11:51 pm)1013.9 hPa (2:51 am)
Wind Speed17.1 km/h31.5 km/h (5:51 pm)
Wind Gust40.7 km/h (4:51 pm)
Weather ElementAverage
Visibility16.1 km
Wind DirectionW (266.1 °)

Weather ElementTotal
Precipitation---
Cooling Degree Days3.3 (Base 18.3)
Growing Degree Days11.7 (Base 10)
Averaged from 23 records on 5 September, 2013
WEATHER CONDITIONS BREAKOUT
WIND DIRECTION BREAKOUT
WEATHER BY HOUR - 5 SEPTEMBER, 2013
[ °F ]   °C
Local TimeTemperatureDewpointHumidityBarometerVisibilityWind DirectionWind SpeedGust SpeedPrecipitationEventsConditions
1:51 AM20 °C14.4 °C70 %1014.2 hPa16.1 kmSW (230°)14.8 km/hClear
2:51 AM19.4 °C14.4 °C73 %1013.9 hPa16.1 kmSW (230°)14.8 km/hClear
3:51 AM18.9 °C14.4 °C75 %1013.9 hPa16.1 kmSW (220°)9.3 km/hClear
4:51 AM17.2 °C14.4 °C84 %1013.9 hPa16.1 kmSSW (210°)11.1 km/hClear
5:51 AM17.8 °C14.4 °C80 %1014.2 hPa16.1 kmSW (220°)13 km/hClear
6:51 AM17.2 °C14.4 °C84 %1014.6 hPa16.1 kmSSW (210°)9.3 km/hScattered Clouds
7:51 AM20 °C14.4 °C70 %1015.2 hPa16.1 kmWSW (250°)14.8 km/hMostly Cloudy
8:51 AM21.1 °C14.4 °C65 %1015.6 hPa16.1 kmWest (260°)16.7 km/hMostly Cloudy
9:51 AM23.3 °C15 °C59 %1015.2 hPa16.1 kmWest (260°)13 km/hMostly Cloudy
10:51 AM23.3 °C15 °C59 %1015.6 hPa16.1 kmNW (320°)18.5 km/hMostly Cloudy
11:51 AM23.3 °C15 °C59 %1015.6 hPa16.1 kmNorth (350°)20.4 km/hMostly Cloudy
12:51 PM25.6 °C11.7 °C42 %1015.6 hPa16.1 kmNW (320°)24.1 km/h37 km/hMostly Cloudy
1:51 PM26.1 °C7.2 °C30 %1015.6 hPa16.1 kmNNW (340°)24.1 km/hMostly Cloudy
2:51 PM25.6 °C8.3 °C33 %1015.9 hPa16.1 kmNW (320°)20.4 km/h38.9 km/hMostly Cloudy
3:51 PM25.6 °C8.9 °C35 %1015.9 hPa16.1 kmNNW (330°)16.7 km/h33.3 km/hScattered Clouds
4:51 PM25 °C7.2 °C32 %1016.3 hPa16.1 kmNorth (350°)18.5 km/h40.7 km/hScattered Clouds
5:51 PM23.9 °C3.9 °C27 %1016.9 hPa16.1 kmNW (320°)31.5 km/h37 km/hScattered Clouds
6:51 PM22.8 °C5 °C31 %1017.6 hPa16.1 kmNW (320°)25.9 km/h35.2 km/hScattered Clouds
7:51 PM21.7 °C5 °C34 %1018.3 hPa16.1 kmNW (320°)18.5 km/hScattered Clouds
8:51 PM20.6 °C5.6 °C38 %1019.3 hPa16.1 kmNorth (350°)16.7 km/hScattered Clouds
9:51 PM18.3 °C6.7 °C47 %1020 hPa16.1 kmNNE (20°)13 km/hScattered Clouds
10:51 PM17.8 °C6.7 °C48 %1020.7 hPa16.1 kmNorth (10°)13 km/hPartly Cloudy
11:51 PM17.2 °C6.7 °C50 %1021.3 hPa16.1 kmNorth (360°)13 km/hPartly Cloudy
Hourly data recorded from KEWR, located 0 kilometers away from Staten Island, New York







STORIES FROM OUR PARTNERS